Terminal Aerodrome Forecast
Issued by NWS

Home | Current Version | Previous Version | Graphics & Text | Print | Product List | Glossary On
Versions: 1 2 3 4 5 6 7 8 9 10 11 12 13 14 15 16 17 18 19 20 21 22 23
000
FTUS43 KUNR 280406 AAA
TAFGCC
TAF AMD
KGCC 280406Z 2804/2824 36010KT 3SM -SN BKN007 OVC015
     FM280700 36005KT 2SM -SN BR OVC012
     FM281000 03006KT 1SM BR OVC004
     FM281600 01006KT P6SM OVC007
     FM281900 05008KT P6SM OVC013
     FM282200 03010KT P6SM OVC025=

USA.gov is the U.S. government's official web portal to all federal, state and local government web resources and services.